Location: Brabourne
(51.1333°N, 1.0000°E)
Time: 11:43:12
(UTC+00:00)

IRS-1D - Pass Details

Date: 21 October 2021
Orbit: 739 x 817 km, 98.6° (Epoch: 30 November)

Event Time Altitude Azimuth Distance (km) Brightness Sun altitude
Rises 02:11:37 0° 18° (NNE) 3,286 7.4 -39.2°
Reaches altitude 10° 02:14:02 10° 23° (NNE) 2,341 6.6 -38.9°
Enters shadow 02:15:44 21° 30° (NNE) 1,703 5.7 -38.7°
